This demonstration page uses our WeatherBlox Daily Observations layout. Learn more.

38.88101, -77.10428

Hourly Observations for April 4, 2018

Temp ( °F °C ) Dew Point ( °F °C ) Humidity (%) Winds ( mph kmh ) Pressure ( in mb ) Visibility ( mi km ) Precip ( " mm )
12:52 am 00:52 Partly Cloudy 52 11.1 47 8.3 83 83 Calm 29.78 1009 10 16.0934 0 0
1:52 am 01:52 Mostly Clear 51 10.6 47 8.3 86 86 Calm 29.74 1007 10 16.0934 0 0
2:52 am 02:52 Mostly Cloudy 49 9.4 46 7.8 90 90 SW 5 7 29.69 1006 9 14.48406 0 0
3:52 am 03:52 Cloudy 50 10 47 8.3 89 89 S 7 11 29.65 1004 10 16.0934 0 0
4:52 am 04:52 Cloudy 51 10.6 47 8.3 86 86 S 5 7 29.62 1003 10 16.0934 0 0
5:52 am 05:52 Cloudy 50 10 48 8.9 93 93 SSW 5 7 29.6 1002 10 16.0934 0 0
6:52 am 06:52 Cloudy 51 10.6 49 9.4 92 92 SSW 7 11 29.59 1002 8 12.87472 0 0
7:52 am 07:52 Cloudy 58 14.4 53 11.7 84 84 SSW 10 17 29.57 1001 10 16.0934 0 0
8:52 am 08:52 Cloudy 68 20 57 13.9 68 68 SSW 16 26 29.54 1000 10 16.0934 0 0
9:52 am 09:52 Cloudy 69 20.6 56 13.3 63 63 SSW 25 41 29.52 1000 10 16.0934 0 0
10:52 am 10:52 Cloudy 70 21.1 55 12.8 59 59 SSW 18 30 29.52 1000 10 16.0934 0 0.0254
11:52 am 11:52 Cloudy 67 19.4 51 10.6 57 57 NW 31 50 29.58 1002 10 16.0934 0 0
11:59 am 11:59 Cloudy 63 17.2 48 8.9 58 58 NW 24 39 29.59 1002 10 16.0934 0 0
12:52 pm 12:52 Cloudy 61 16.1 45 7.2 56 56 NW 23 37 29.61 1003 10 16.0934 0 0.0254
1:52 pm 13:52 Mostly Cloudy 61 16.1 36 2.2 39 39 WNW 25 41 29.63 1004 10 16.0934 0 0
2:52 pm 14:52 Mostly Cloudy 61 16.1 30 -1.1 31 31 NW 24 39 29.68 1005 10 16.0934 0 0
3:52 pm 15:52 Mostly Cloudy 60 15.6 26 -3.3 27 27 NW 30 48 29.72 1006 10 16.0934 0 0
4:52 pm 16:52 Partly Cloudy 58 14.4 22 -5.6 25 25 WNW 26 43 29.77 1008 10 16.0934 0 0
5:52 pm 17:52 Partly Cloudy 55 12.8 20 -6.7 25 25 NW 30 48 29.81 1010 10 16.0934 0 0
6:52 pm 18:52 Partly Cloudy 51 10.6 18 -7.8 27 27 NW 18 30 29.88 1012 10 16.0934 0 0
7:52 pm 19:52 Mostly Clear 49 9.4 17 -8.3 28 28 WNW 22 35 29.93 1013 10 16.0934 0 0
8:52 pm 20:52 Mostly Clear 47 8.3 17 -8.3 30 30 WNW 17 28 29.96 1015 10 16.0934 0 0
9:52 pm 21:52 Mostly Clear 46 7.8 17 -8.3 31 31 WNW 17 28 30.01 1016 10 16.0934 0 0
10:52 pm 22:52 Mostly Clear 45 7.2 18 -7.8 34 34 NW 21 33 30.03 1017 10 16.0934 0 0
11:52 pm 23:52 Clear 44 6.7 19 -7.2 37 37 WNW 21 33 30.05 1018 10 16.0934 0 0

Powered by AerisWeather